Location: Acts Church of Fort Worth
(32.6786°N, 97.2668°W)
Time: 20:36:32
(UTC+00:00)

YAOGAN 1 - Pass Details

Date: 18 January 2026
Orbit: 605 x 607 km, 97.8° (Epoch: 10 February)

Event Time Altitude Azimuth Distance (km) Brightness Sun altitude
Rises 00:52:45 0° 161° (SSE) 2,847 5.9 -13.6°
Reaches altitude 10° 00:54:56 10° 159° (SSE) 1,948 5.1 -14.1°
Maximum altitude 00:59:07 68° 77° (ENE) 656 2.4 -14.9°
Drops below altitude 10° 01:03:21 10° 354° (N) 1,959 5.0 -15.8°
Sets 01:05:32 0° 352° (N) 2,866 5.9 -16.2°
